STARLINK-34427

导读

STARLINK-34427是美国星链计划的卫星,于2025年6月23日发射,属于SpaceX打造的低轨卫星互联网星座组网卫星。星链星座通过大规模部署低轨卫星,为全球提供高速宽带互联网服务,该卫星入轨后将进一步扩充星链网络的覆盖范围与服务容量,推进星座的全球服务布局。

基本信息
目录编号:
64498
目录名称:
STARLINK-34427
国际标识:
2025-133AC
轨道中心:
EARTH
卫星名称:
STARLINK-34427
卫星全名:
STARLINK-34427
卫星状态:
在轨 (已飞行439 天)
发射日期:
2025-06-23 UTC
国别 :
美国 (US)
星等 :
--
轨道信息
数据来源 国际轨道数据
星历时间: 2026-09-05T14:53:52+0800
8小时前
查看轨道信息
半长轴: 6840.804km
偏心率: 0.0003362
轨道倾角: 53.160°
近地点辐角 96.752°
升交点赤经 0.593°
平近点角 263.387°
近地点: 460.367km
远地点: 464.967km
周期: 93.847分钟
每日圈数: 15.344122
详细信息
使用方式:
暂无
2D轨道图
3D轨道图
轨道高度分析图
轨道倾角分析图
轨道综合分析图
查看轨道综合分析图
交会数据列表
事件ID 空间交会对象 最接近时刻(TCA) 交会距离 交会风险概率(CRP) 交会风险指数(CRI) 操作
CDM_260906-213606-344806-449821
2026-09-06T
21:36:46+0000
0.368 km
远距离
1.436861E-4 高风险 0.78
CDM_260907-030506-344806-449821
2026-09-07T
03:05:02+0000
0.413 km
远距离
1.098009E-4 高风险 0.76
CDM_260907-070106-449806-995821
2026-09-07T
07:01:31+0000
0.661 km
远距离
4.69501E-5 中风险 0.68
CDM_260907-171405-329106-449821
2026-09-07T
17:14:32+0000
1.108 km
极远距离
1.220995E-5 中风险 0.57
CDM_260907-013106-344806-449821
2026-09-07T
01:31:15+0000
1.426 km
极远距离
2.290193E-6 低风险 0.42
CDM_260906-200206-344806-449821
2026-09-06T
20:02:59+0000
1.480 km
极远距离
2.041873E-6 低风险 0.41
CDM_260907-105506-449806-995821
2026-09-07T
10:55:58+0000
1.829 km
极远距离
1.75181E-6 低风险 0.4
CDM_260906-100104-380306-449821
JY1SAT (43803)
2026-09-06T
10:01:49+0000
2.133 km
极远距离
1.621367E-6 低风险 0.39
CDM_260903-125605-794206-449821
2026-09-03T
12:56:27+0000
2.623 km
极远距离
1.192927E-6 低风险 0.37
CDM_260907-173705-383406-449821
2026-09-07T
17:37:17+0000
2.972 km
极远距离
1.190366E-6 低风险 0.37